Theta_e
336 330 333 328 311 317 306 316 322 322 322 326 322 319 318 320 317 312 333 334 335 341 350 356 362 360 359 361 361 361 360 359 357 356 355 355 355 355 356 358 358 356 354 353 353 354 354 353 353
324 322 323 315 312 309 310 318 319 323 326 327 322 320 319 317 326 326 329 336 338 340 347 354 362 362 361 360 360 360 358 357 356 355 355 355 355 355 356 358 358 356 356 355 355 355 356 354 354
325 322 314 311 313 308 311 319 322 327 328 328 324 324 324 322 327 327 333 336 337 340 348 358 362 361 360 360 359 358 357 357 356 355 355 355 355 355 357 356 357 355 356 356 356 355 354 353 352
321 318 316 308 308 316 317 321 324 324 328 327 324 321 328 331 329 331 334 335 337 342 346 359 362 361 359 358 358 357 357 356 356 355 355 354 354 354 355 355 354 353 353 352 352 351 351 351 350
319 315 310 309 312 315 320 324 324 322 322 323 326 323 323 330 335 335 335 337 339 340 345 354 361 360 359 358 357 357 357 357 356 356 355 354 354 353 352 352 351 351 351 351 351 351 352 352 353
313 315 308 307 311 315 319 327 324 321 323 323 323 323 324 332 334 335 336 337 342 341 345 351 360 361 360 358 357 357 357 357 357 357 356 355 354 354 354 353 353 353 354 354 352 354 355 355 355
312 312 308 310 311 314 318 326 322 321 323 324 327 320 326 331 334 336 335 338 341 344 345 347 350 357 359 358 358 357 357 357 356 355 355 354 353 354 354 354 354 354 354 353 353 354 353 353 353
316 313 309 311 311 314 323 324 326 323 323 332 329 321 322 331 336 336 335 336 340 343 344 345 348 348 351 354 358 357 356 356 356 355 354 355 355 355 354 353 353 355 354 354 355 355 354 354 353
318 308 308 311 315 315 324 323 327 328 331 333 327 328 331 335 336 334 333 334 336 339 342 346 345 344 345 346 353 357 356 355 355 355 355 354 347 348 347 350 355 355 355 355 355 355 354 354 353
313 309 311 320 320 318 321 324 324 327 328 331 329 332 334 335 334 332 332 332 333 336 339 341 344 345 345 350 351 351 350 350 349 349 352 350 349 352 347 351 357 356 356 356 356 356 356 354 339
314 311 318 319 323 322 322 324 325 324 322 330 328 329 331 332 333 332 332 333 333 336 339 342 353 357 350 343 353 349 352 351 352 356 357 357 353 351 347 347 347 349 351 346 351 351 349 346 338
311 316 317 320 324 323 321 326 322 322 322 335 335 335 333 332 332 331 331 333 335 337 340 345 351 358 359 354 352 353 348 352 350 353 358 357 354 354 355 350 349 350 349 349 352 349 351 350 349
312 313 315 317 325 322 323 319 327 324 330 335 334 333 333 333 335 339 336 341 342 340 343 346 351 361 362 364 356 356 355 352 353 354 356 353 356 356 355 355 355 355 350 346 341 344 349 349 349
315 314 313 316 321 320 319 319 330 330 333 332 333 334 335 338 340 341 343 344 349 352 349 351 350 362 357 363 367 362 362 357 356 354 357 357 359 362 357 356 356 355 356 356 351 346 350 350 349
315 310 312 313 317 319 323 320 325 332 334 333 334 335 337 339 340 341 344 345 347 349 351 352 355 358 363 363 367 366 362 357 358 354 358 358 356 357 357 357 358 357 357 357 355 355 353 350 349
310 310 305 311 313 315 316 310 326 332 331 331 333 333 335 336 338 341 344 346 348 350 350 352 351 353 360 363 365 364 358 356 356 356 354 351 351 351 350 351 355 353 354 355 352 353 351 351 351
308 302 305 308 313 312 312 309 324 329 329 329 331 332 333 335 338 341 343 345 348 349 351 351 353 353 358 358 360 358 356 354 350 349 347 347 346 345 346 346 346 347 348 349 346 344 346 348 351
303 303 305 306 310 311 309 308 322 325 326 327 329 331 333 333 335 339 341 343 344 345 349 351 353 359 359 356 359 355 351 348 346 345 344 345 342 341 343 340 342 342 341 342 341 338 341 343 344
308 307 306 308 313 310 309 308 318 321 321 322 325 329 331 332 335 337 338 338 337 339 342 345 348 355 353 350 348 348 345 347 344 342 340 341 340 340 342 339 338 339 339 341 341 339 336 336 341
307 306 306 310 312 310 309 309 312 321 320 319 323 327 330 331 331 333 333 334 334 336 339 341 342 346 346 344 349 348 347 342 341 341 338 338 337 338 336 337 335 337 338 338 338 337 333 338 340
306 305 306 306 311 312 309 307 311 317 320 320 323 328 331 330 329 330 329 330 330 332 334 336 338 340 342 347 347 348 347 337 332 334 331 333 333 331 335 334 335 334 335 333 335 335 333 331 334
303 308 307 308 307 302 310 299 310 313 315 319 320 325 328 330 330 329 328 327 328 328 331 334 336 338 335 341 338 339 328 325 331 328 334 333 332 329 331 331 333 332 332 333 332 333 332 332 328
305 311 308 308 306 305 305 304 307 313 313 317 321 324 327 329 328 326 326 325 324 327 327 330 332 332 334 335 336 330 331 330 330 331 335 336 332 328 328 329 330 329 326 328 329 331 333 331 328
312 309 308 308 305 297 303 302 302 307 314 317 321 323 326 327 327 327 327 325 324 324 325 329 330 332 334 333 333 333 332 329 329 330 327 329 328 327 330 330 330 332 329 327 326 329 330 331 330
309 305 297 296 297 296 306 302 305 312 315 315 318 323 327 328 325 325 324 322 323 323 324 326 329 329 331 331 331 331 333 333 331 331 327 329 327 327 330 332 331 328 331 328 327 325 325 327 323
306 305 298 293 295 298 306 300 305 316 318 317 318 320 327 327 325 323 324 323 322 323 325 326 328 328 329 330 330 333 335 331 327 330 330 327 326 329 332 331 331 330 329 329 326 324 323 326 325
306 304 309 302 303 298 302 307 314 316 316 316 316 318 319 327 326 324 324 324 324 325 327 328 328 329 329 330 331 332 332 331 329 333 333 329 331 326 329 330 330 329 329 329 327 323 322 323 324
308 310 302 303 295 293 298 301 303 310 312 316 316 317 321 324 323 323 323 325 326 325 326 328 329 329 330 330 330 329 331 332 332 333 332 332 333 332 330 328 327 326 324 324 326 324 321 322 319
306 303 304 305 303 296 295 300 314 311 313 314 318 320 320 320 321 322 322 325 324 325 324 325 326 328 329 330 331 332 331 331 331 332 332 331 332 330 328 326 323 323 322 323 320 322 321 317 317
309 307 309 300 300 303 302 300 316 315 314 317 318 319 324 323 322 322 324 325 324 325 326 324 326 325 327 329 330 330 331 332 333 330 327 328 327 328 327 326 325 323 321 322 319 318 318 316 314
Wind_Speed
10 12 10 9 6 6 13 6 10 15 20 18 25 20 24 23 14 12 21 22 22 18 14 14 13 14 13 12 13 12 11 10 9 8 8 9 9 9 9 8 9 10 10 11 11 10 9 8 7
10 16 11 6 4 3 8 13 18 17 14 24 26 24 26 26 25 21 20 23 21 17 13 13 13 13 13 12 12 11 10 9 8 8 8 8 8 8 8 8 8 9 9 9 9 8 7 6 5
14 15 8 8 2 3 9 19 15 9 16 22 20 20 12 19 21 19 20 21 19 17 16 13 13 13 13 12 11 11 10 9 8 8 8 7 7 6 6 6 6 7 7 7 6 6 5 4 3
8 9 8 10 17 21 11 14 15 14 25 27 25 17 16 19 22 19 20 20 20 19 16 14 13 12 12 11 11 10 9 8 7 7 7 6 5 5 4 3 3 3 3 3 3 2 1 0 2
10 8 12 17 17 11 11 8 22 24 24 24 23 20 19 21 19 18 16 18 20 18 15 14 13 12 11 10 9 8 8 8 7 6 5 5 4 3 3 2 2 2 2 2 2 3 4 5 5
10 10 14 14 15 11 9 20 30 15 22 24 27 23 20 19 18 16 14 17 21 17 15 13 12 11 10 10 9 8 7 6 6 5 5 4 4 3 3 4 4 4 4 5 5 6 6 6 7
13 12 17 17 7 10 10 28 27 22 28 27 27 24 16 18 17 15 15 16 19 19 15 12 12 10 10 9 9 8 7 6 6 5 4 5 6 7 7 7 7 7 7 7 7 8 9 9 9
12 13 21 14 15 17 20 13 26 10 5 21 14 13 17 18 18 15 16 16 16 18 17 15 12 12 11 10 10 9 8 7 6 6 6 8 8 10 11 9 10 9 8 8 9 9 10 10 11
11 13 14 12 11 4 25 19 10 18 4 19 9 17 19 19 17 15 15 15 12 13 15 17 16 15 14 13 10 9 9 8 8 8 10 9 7 10 12 11 9 14 11 10 11 12 11 11 13
12 12 16 14 20 8 24 28 20 18 15 19 21 21 19 17 16 15 14 14 13 13 13 9 14 7 15 12 12 10 10 8 9 9 8 7 9 6 3 9 14 14 13 13 13 13 13 11 8
16 13 4 4 20 24 6 28 28 27 5 13 20 20 19 17 13 13 13 14 14 11 7 13 9 5 4 7 9 7 7 7 7 8 7 4 5 4 3 3 5 5 11 7 11 10 8 11 9
13 7 9 6 14 11 18 14 24 28 16 15 20 20 18 16 13 12 12 11 14 12 11 10 11 4 4 6 3 2 1 1 3 5 6 4 3 4 3 3 4 6 4 7 6 7 10 11 6
14 5 3 5 13 21 23 23 27 24 24 19 18 16 15 13 9 13 12 14 13 10 10 6 7 6 5 1 5 4 4 2 4 2 3 3 3 4 4 4 4 4 5 4 5 5 5 4 5
4 3 2 6 8 18 32 31 14 16 18 18 17 15 13 12 11 9 12 11 10 10 7 9 5 6 2 4 3 4 2 3 1 3 3 5 3 4 4 5 6 6 6 5 4 4 4 4 5
4 9 5 7 4 10 9 16 17 14 15 16 15 14 13 12 11 9 8 6 4 6 3 3 4 5 2 4 3 4 3 4 5 9 11 13 9 6 8 7 7 8 9 10 9 8 9 7 16
11 10 11 13 9 2 4 9 17 15 14 15 14 12 12 12 11 10 9 8 5 7 4 4 6 4 6 4 3 2 8 8 5 6 8 11 9 9 9 8 6 9 9 8 9 9 10 10 6
11 12 14 16 14 6 9 7 15 13 12 14 12 11 12 11 10 9 11 9 8 7 6 7 5 6 6 9 6 9 8 6 8 8 8 11 12 13 9 7 9 11 9 8 8 9 9 10 11
16 16 12 11 16 14 9 6 14 13 13 13 11 12 12 12 11 8 9 10 9 8 7 7 5 4 7 6 4 4 6 7 6 5 6 6 7 7 6 6 5 5 5 7 7 9 8 7 8
19 12 12 10 11 5 10 10 17 14 12 13 12 12 12 12 10 8 8 9 10 8 7 7 6 4 4 4 4 3 4 5 5 6 8 7 7 9 5 5 8 6 6 5 6 5 8 7 6
16 12 10 3 9 1 7 14 17 17 12 12 15 14 13 15 11 9 9 9 9 8 7 7 6 7 6 5 3 3 3 3 5 6 8 7 8 8 8 8 7 8 7 8 8 8 7 3 4
9 12 12 16 3 0 11 16 12 13 12 13 13 15 16 17 14 11 10 9 10 8 8 8 7 6 6 4 3 2 1 5 5 5 6 6 8 9 8 9 7 8 7 8 9 9 9 6 6
12 15 17 5 3 9 17 11 15 20 16 14 15 14 15 16 15 12 12 10 9 9 9 8 7 6 7 6 5 6 6 6 3 5 2 5 7 7 7 8 7 8 7 7 6 7 7 7 7
14 15 14 5 10 12 14 10 14 18 17 17 15 13 14 16 16 14 12 11 11 11 10 8 8 8 8 8 8 5 6 4 4 4 1 6 7 9 8 7 7 7 7 8 9 9 5 5 5
9 3 5 6 10 12 17 16 12 8 16 14 17 17 15 16 15 14 13 12 10 12 11 9 8 7 7 7 7 7 6 6 4 3 4 3 4 5 6 6 6 5 5 7 7 7 8 4 5
4 7 7 11 11 14 17 18 13 13 11 9 5 17 16 16 15 14 14 12 11 12 11 10 8 8 7 7 6 6 5 6 4 4 3 5 3 4 4 4 4 4 5 6 8 10 7 6 7
16 12 10 13 11 10 4 7 7 14 12 8 9 6 12 18 16 15 15 13 12 12 11 10 10 9 8 7 6 4 5 3 5 4 3 3 4 3 4 4 4 5 5 4 6 6 8 5 5
10 10 10 10 12 13 13 6 11 11 11 7 5 3 6 14 13 15 15 13 13 11 9 10 10 8 7 7 5 4 3 5 5 3 3 4 5 5 5 5 4 4 4 4 4 4 7 8 6
9 11 8 5 11 15 13 16 8 10 9 9 3 3 4 7 11 14 14 14 11 12 9 8 9 8 7 8 6 6 4 4 4 2 2 1 2 2 5 6 5 5 6 6 5 4 6 5 7
11 11 12 12 9 10 10 3 7 8 5 3 5 5 7 8 9 12 13 14 13 14 14 11 9 9 7 6 5 4 3 4 3 1 2 3 4 5 6 9 9 6 6 6 5 7 6 7 8
15 14 8 9 13 11 11 11 9 4 1 7 6 6 10 11 12 12 14 16 15 16 15 15 11 10 10 7 5 5 4 1 1 5 7 7 7 7 8 9 7 6 6 5 6 6 5 7 8
Wind_Direction
270 232 231 254 257 108 271 62 269 105 79 80 69 67 63 52 64 91 98 100 105 103 118 104 105 107 106 103 103 102 103 100 99 101 102 99 95 93 93 90 88 87 86 87 90 91 86 80 71
292 290 227 284 44 60 254 265 78 89 98 89 90 81 69 74 86 95 100 104 109 123 111 112 110 109 110 109 108 109 110 113 118 115 108 103 103 106 103 98 97 97 94 94 91 88 84 80 59
268 257 265 213 99 189 197 102 101 115 121 105 87 70 68 84 86 106 105 113 121 118 113 123 119 115 115 117 119 118 121 124 123 116 111 110 109 109 109 106 105 107 108 106 104 99 84 69 46
266 236 232 237 193 205 93 101 121 109 98 99 105 82 85 93 110 115 117 130 124 114 119 122 119 120 123 125 126 128 130 130 126 122 120 117 114 116 112 108 105 102 104 117 130 136 146 278 302
239 267 255 263 146 95 96 144 45 29 87 99 104 108 97 105 115 115 137 124 112 116 123 128 127 128 129 130 131 134 138 140 140 139 136 133 134 142 155 168 181 186 189 208 239 266 280 287 293
253 242 266 260 111 108 111 82 89 118 107 111 109 110 108 124 126 131 140 126 115 127 124 137 134 135 136 139 144 148 152 156 159 159 162 168 180 196 218 231 241 248 250 257 263 268 272 279 287
258 255 264 289 54 142 114 81 83 35 263 105 111 113 128 140 137 141 129 110 120 129 133 136 142 146 147 151 157 161 169 174 183 188 197 209 214 219 223 230 236 245 251 258 257 265 270 272 270
255 279 277 268 209 122 87 98 130 140 309 132 122 130 147 137 144 150 133 129 135 135 141 150 151 165 168 164 170 174 183 193 204 211 221 231 233 234 230 226 229 234 240 253 261 258 261 266 268
248 272 257 257 72 329 108 115 147 167 41 69 101 147 126 145 147 149 141 138 143 135 150 159 163 170 179 159 169 176 191 200 213 224 231 237 240 222 227 217 229 209 220 234 245 252 253 256 260
232 244 274 71 91 42 252 142 146 78 19 92 105 116 137 149 159 148 153 149 145 147 160 152 157 137 157 148 151 186 185 194 200 208 194 224 242 192 218 194 194 206 215 228 238 241 245 249 253
219 260 191 335 125 180 122 57 98 83 38 124 131 139 148 156 158 156 162 155 150 144 109 107 78 30 343 162 173 189 178 197 200 201 183 318 355 324 238 214 213 210 219 229 220 225 229 228 228
276 352 11 12 44 52 23 130 100 112 225 141 143 146 152 158 159 169 171 148 133 118 99 96 111 105 18 357 337 285 332 140 167 174 167 197 256 239 259 312 314 206 163 228 211 210 207 228 232
256 125 336 267 87 72 33 302 124 160 188 130 126 134 143 137 98 52 76 62 48 97 110 61 97 100 91 130 316 347 14 341 16 51 174 167 8 334 324 322 315 286 281 284 285 282 283 272 273
286 103 229 279 79 128 149 236 114 117 125 131 124 116 108 108 88 75 61 67 72 54 45 52 39 94 315 181 350 351 349 322 235 218 55 39 14 345 324 303 315 321 317 294 276 276 279 284 270
338 262 200 251 164 144 163 168 123 136 128 120 117 104 104 103 113 105 88 91 89 88 63 71 218 113 105 313 192 180 272 23 25 49 41 33 48 36 3 339 340 1 336 340 345 340 340 359 294
249 239 237 209 213 181 292 357 126 148 137 133 131 130 126 125 120 122 110 105 100 83 99 79 348 89 101 22 348 340 39 48 49 36 42 15 16 26 359 342 347 359 334 338 354 344 332 329 312
224 254 233 259 170 211 184 236 151 168 160 151 146 147 136 124 123 120 123 120 108 89 78 83 51 50 55 48 70 63 64 53 44 35 32 18 19 19 4 346 1 360 346 354 4 349 352 339 334
213 210 249 242 178 191 218 237 139 176 181 158 170 169 150 151 137 125 111 111 106 99 86 67 74 90 89 90 79 87 65 74 75 56 42 36 32 17 14 6 352 357 349 354 359 343 331 320 334
272 297 222 256 81 162 204 243 173 180 186 183 187 169 170 146 130 139 124 119 111 100 83 82 78 70 65 60 77 54 117 129 121 95 56 27 30 17 43 9 8 355 342 5 356 343 335 328 342
270 274 287 167 109 156 281 258 256 171 194 223 183 178 177 133 150 152 145 133 120 112 102 89 67 33 57 88 50 49 15 53 85 93 86 40 33 24 13 25 8 354 354 14 354 350 337 299 349
261 257 259 266 124 324 266 259 246 207 186 215 201 185 177 154 167 164 156 145 137 125 115 100 89 67 46 77 120 157 136 62 40 68 45 59 44 17 27 11 8 2 354 17 360 4 357 340 338
248 230 253 306 183 256 209 247 227 219 191 204 216 189 173 158 159 163 160 153 141 134 118 105 91 104 55 47 71 60 75 77 10 68 86 107 78 43 25 22 6 10 352 11 354 3 353 7 3
250 332 213 242 253 267 267 234 273 173 187 208 197 193 173 161 155 166 168 157 150 140 128 114 101 84 68 48 29 63 44 95 71 39 29 104 99 69 22 35 8 21 3 1 352 350 2 2 353
57 291 287 259 272 256 251 262 275 249 176 203 193 194 181 168 159 163 165 156 156 142 134 125 116 107 97 89 77 78 79 65 61 64 25 43 76 78 38 30 12 14 8 0 355 348 336 13 355
283 257 241 232 231 242 245 228 237 131 110 60 177 179 166 162 164 164 157 164 173 150 145 137 139 133 127 116 112 108 121 129 74 22 55 23 72 71 30 15 15 1 3 6 354 336 349 17 350
209 235 256 270 283 313 76 288 288 119 126 118 116 118 171 164 166 168 165 176 179 160 155 149 155 148 141 132 129 159 173 136 119 65 28 75 18 52 55 358 5 358 354 9 5 343 337 348 330
274 251 258 280 301 286 282 212 126 114 96 82 109 159 204 154 160 165 166 183 179 157 158 158 158 150 152 144 140 143 108 55 95 86 331 37 50 334 20 329 328 323 329 339 25 0 335 328 341
256 287 292 204 254 267 270 263 102 156 150 127 130 173 173 158 170 171 174 180 165 165 166 176 150 163 159 159 164 158 152 157 133 72 35 338 314 339 307 306 311 332 330 340 0 338 316 360 352
220 230 247 276 291 303 298 276 140 108 104 118 133 175 161 176 195 180 179 158 181 176 175 181 175 168 168 176 164 124 181 152 124 70 295 304 332 354 337 326 332 344 1 343 348 330 333 11 350
234 259 236 223 240 247 260 267 63 95 310 156 173 183 177 178 194 192 175 167 190 193 182 168 178 183 172 174 172 161 167 167 106 35 28 6 350 333 327 322 318 336 358 341 351 327 4 354 340